Tracking 28531 objects as of 27-Feb-2024
HD Live streaming from Space Station
objects crossing your sky now

ARIANE 42L+3 R/B

Track ARIANE 42L+3 R/B now!


NORAD ID: 23671
Int'l Code: 1995-049B
Perigee: 389.1 km
Apogee: 35,607.2 km
Inclination: 7.6 °
Period: 631.0 minutes
Semi major axis: 24369 km
RCS: 18.3882 m2 (large)
Launch date: September 24, 1995
Source: France (FR)
Launch site: FRENCH GUIANA (FRGUI)

Note: This is a ROCKET BODY
Your satellite tracking list
Your tracking list is empty




NASA's NSSDC Master Catalog

Two Line Element Set (TLE):
1 23671U 95049B   24057.28635519  .00001846  00000-0  42196-2 0  9996
2 23671   7.6481  42.1206 7225953 305.6566   6.8443  2.28214115233094
Source of the keplerian elements: AFSPC